Location: Kaltenbach
(49.2000°N, 7.7500°E)
Time: 06:23:23
(UTC+00:00)

ATLAS 5 CENTAUR R/B - Pass Details

Date: 24 January 2020
Orbit: 550 x 1108 km, 63.4° (Epoch: 12 February)

Event Time Altitude Azimuth Distance (km) Brightness Sun altitude
Rises 17:05:52 0° 266° (W) 2,840 6.7 -8.9°
Reaches altitude 10° 17:08:22 10° 281° (W) 2,002 5.2 -9.3°
Maximum altitude 17:12:05 24° 336° (NNW) 1,381 3.4 -9.9°
Drops below altitude 10° 17:16:14 10° 31° (NNE) 2,259 4.0 -10.5°
Enters shadow 17:17:00 - 36° (NE) 2,508 4.2 -10.6°
